Time,TemperatureF,DewpointF,PressureIn,WindDirection,WindDirectionDegrees,WindSpeedMPH,WindSpeedGustMPH,Humidity,HourlyPrecipIn,Conditions,Clouds,dailyrainin,SoftwareType,DateUTC
2013-01-18 00:22:00,55.0,17.0,30.05,East,80,16.0,27.0,22,0.00,,,-99.99,,2013-01-18 08:22:00,
2013-01-18 00:32:00,55.0,17.0,30.05,East,80,16.0,27.0,22,0.00,,,-99.99,,2013-01-18 08:32:00,
2013-01-18 00:42:00,55.0,17.0,30.05,East,80,16.0,27.0,22,0.00,,,-99.99,,2013-01-18 08:42:00,
2013-01-18 00:52:00,55.0,17.0,30.05,East,80,16.0,27.0,22,0.00,,,-99.99,,2013-01-18 08:52:00,
2013-01-18 01:22:00,55.0,16.0,30.05,East,80,21.0,27.0,21,0.00,,,-99.99,,2013-01-18 09:22:00,
2013-01-18 01:32:00,55.0,16.0,30.05,East,80,21.0,27.0,21,0.00,,,-99.99,,2013-01-18 09:32:00,
2013-01-18 01:42:00,55.0,16.0,30.05,East,80,21.0,27.0,21,0.00,,,-99.99,,2013-01-18 09:42:00,
2013-01-18 01:52:00,55.0,16.0,30.05,East,80,21.0,27.0,21,0.00,,,-99.99,,2013-01-18 09:52:00,
2013-01-18 02:22:00,55.0,16.0,30.05,East,80,9.0,24.0,21,0.00,,,-99.99,,2013-01-18 10:22:00,
2013-01-18 02:32:00,55.0,16.0,30.05,East,80,9.0,24.0,21,0.00,,,-99.99,,2013-01-18 10:32:00,
2013-01-18 02:42:00,55.0,16.0,30.05,East,80,9.0,24.0,21,0.00,,,-99.99,,2013-01-18 10:42:00,
2013-01-18 02:52:00,55.0,16.0,30.05,East,80,9.0,24.0,21,0.00,,,-99.99,,2013-01-18 10:52:00,
2013-01-18 03:22:00,54.0,16.0,30.04,East,80,18.0,25.0,22,0.00,,,-99.99,,2013-01-18 11:22:00,
2013-01-18 03:32:00,54.0,16.0,30.04,East,80,18.0,25.0,22,0.00,,,-99.99,,2013-01-18 11:32:00,
2013-01-18 03:42:00,54.0,16.0,30.04,East,80,18.0,25.0,22,0.00,,,-99.99,,2013-01-18 11:42:00,
2013-01-18 03:52:00,54.0,16.0,30.04,East,80,18.0,25.0,22,0.00,,,-99.99,,2013-01-18 11:52:00,
2013-01-18 04:22:00,54.0,18.0,30.04,East,80,11.0,27.0,24,0.00,,,-99.99,,2013-01-18 12:22:00,
2013-01-18 04:32:00,54.0,18.0,30.04,East,80,11.0,27.0,24,0.00,,,-99.99,,2013-01-18 12:32:00,
2013-01-18 04:42:00,54.0,18.0,30.04,East,80,11.0,27.0,24,0.00,,,-99.99,,2013-01-18 12:42:00,
2013-01-18 04:52:00,54.0,18.0,30.04,East,80,11.0,27.0,24,0.00,,,-99.99,,2013-01-18 12:52:00,
2013-01-18 05:22:00,54.0,18.0,30.03,East,80,18.0,31.0,24,0.00,,,-99.99,,2013-01-18 13:22:00,
2013-01-18 05:33:00,54.0,18.0,30.03,East,80,18.0,31.0,24,0.00,,,-99.99,,2013-01-18 13:33:00,
2013-01-18 05:43:00,54.0,18.0,30.03,East,80,18.0,31.0,24,0.00,,,-99.99,,2013-01-18 13:43:00,
2013-01-18 05:52:00,54.0,18.0,30.03,East,80,18.0,31.0,24,0.00,,,-99.99,,2013-01-18 13:52:00,
2013-01-18 06:22:00,54.0,18.0,30.03,East,80,23.0,28.0,24,0.00,,,-99.99,,2013-01-18 14:22:00,
2013-01-18 06:33:00,54.0,18.0,30.03,East,80,23.0,28.0,24,0.00,,,-99.99,,2013-01-18 14:33:00,
2013-01-18 06:42:00,54.0,18.0,30.03,East,80,23.0,28.0,24,0.00,,,-99.99,,2013-01-18 14:42:00,
2013-01-18 06:53:00,54.0,18.0,30.03,East,80,23.0,28.0,24,0.00,,,-99.99,,2013-01-18 14:53:00,
2013-01-18 07:23:00,54.0,18.0,30.04,East,80,13.0,30.0,24,0.00,,,-99.99,,2013-01-18 15:23:00,
2013-01-18 07:33:00,54.0,18.0,30.04,East,80,13.0,30.0,24,0.00,,,-99.99,,2013-01-18 15:33:00,
2013-01-18 07:43:00,54.0,18.0,30.04,East,80,13.0,30.0,24,0.00,,,-99.99,,2013-01-18 15:43:00,
2013-01-18 07:53:00,54.0,18.0,30.04,East,80,13.0,30.0,24,0.00,,,-99.99,,2013-01-18 15:53:00,
2013-01-18 08:23:00,54.0,18.0,30.04,East,80,22.0,36.0,24,0.00,,,-99.99,,2013-01-18 16:23:00,
2013-01-18 08:33:00,54.0,18.0,30.04,East,80,22.0,36.0,24,0.00,,,-99.99,,2013-01-18 16:33:00,
2013-01-18 08:42:00,54.0,18.0,30.04,East,80,22.0,36.0,24,0.00,,,-99.99,,2013-01-18 16:42:00,
2013-01-18 08:52:00,54.0,18.0,30.04,East,80,22.0,36.0,24,0.00,,,-99.99,,2013-01-18 16:52:00,
2013-01-18 09:23:00,58.0,19.0,30.06,East,80,17.0,32.0,22,0.00,,,-99.99,,2013-01-18 17:23:00,
2013-01-18 09:33:00,58.0,19.0,30.06,East,80,17.0,32.0,22,0.00,,,-99.99,,2013-01-18 17:33:00,
2013-01-18 09:42:00,58.0,19.0,30.06,East,80,17.0,32.0,22,0.00,,,-99.99,,2013-01-18 17:42:00,
2013-01-18 09:53:00,58.0,19.0,30.06,East,80,17.0,32.0,22,0.00,,,-99.99,,2013-01-18 17:53:00,
2013-01-18 10:23:00,61.0,21.0,30.06,East,80,24.0,34.0,21,0.00,,,-99.99,,2013-01-18 18:23:00,
2013-01-18 10:33:00,61.0,21.0,30.06,East,80,24.0,34.0,21,0.00,,,-99.99,,2013-01-18 18:33:00,
2013-01-18 10:43:00,61.0,21.0,30.06,East,80,24.0,34.0,21,0.00,,,-99.99,,2013-01-18 18:43:00,
2013-01-18 10:52:00,61.0,21.0,30.06,East,80,24.0,34.0,21,0.00,,,-99.99,,2013-01-18 18:52:00,
2013-01-18 11:22:00,62.0,19.0,30.05,East,80,10.0,29.0,19,0.00,,,-99.99,,2013-01-18 19:22:00,
2013-01-18 11:33:00,62.0,19.0,30.05,East,80,10.0,29.0,19,0.00,,,-99.99,,2013-01-18 19:33:00,
2013-01-18 11:42:00,62.0,19.0,30.05,East,80,10.0,29.0,19,0.00,,,-99.99,,2013-01-18 19:42:00,
2013-01-18 11:52:00,62.0,19.0,30.05,East,80,10.0,29.0,19,0.00,,,-99.99,,2013-01-18 19:52:00,
2013-01-18 12:23:00,64.0,20.0,30.03,East,80,22.0,27.0,18,0.00,,,-99.99,,2013-01-18 20:23:00,
2013-01-18 12:33:00,64.0,20.0,30.03,East,80,22.0,27.0,18,0.00,,,-99.99,,2013-01-18 20:33:00,
2013-01-18 12:42:00,64.0,20.0,30.03,East,80,22.0,27.0,18,0.00,,,-99.99,,2013-01-18 20:42:00,
2013-01-18 12:52:00,64.0,20.0,30.03,East,80,22.0,27.0,18,0.00,,,-99.99,,2013-01-18 20:52:00,
2013-01-18 13:22:00,64.0,21.0,30.01,East,80,19.0,28.0,19,0.00,,,-99.99,,2013-01-18 21:22:00,
2013-01-18 13:33:00,64.0,21.0,30.01,East,80,19.0,28.0,19,0.00,,,-99.99,,2013-01-18 21:33:00,
2013-01-18 13:42:00,64.0,21.0,30.01,East,80,19.0,28.0,19,0.00,,,-99.99,,2013-01-18 21:42:00,
2013-01-18 13:52:00,64.0,21.0,30.01,East,80,19.0,28.0,19,0.00,,,-99.99,,2013-01-18 21:52:00,
2013-01-18 14:22:00,64.0,20.0,30.01,East,80,10.0,27.0,18,0.00,,,-99.99,,2013-01-18 22:22:00,
2013-01-18 14:32:00,64.0,20.0,30.01,East,80,10.0,27.0,18,0.00,,,-99.99,,2013-01-18 22:32:00,
2013-01-18 14:42:00,64.0,20.0,30.01,East,80,10.0,27.0,18,0.00,,,-99.99,,2013-01-18 22:42:00,
2013-01-18 14:52:00,64.0,20.0,30.01,East,80,10.0,27.0,18,0.00,,,-99.99,,2013-01-18 22:52:00,
2013-01-18 15:22:00,63.0,20.0,30.01,East,80,21.0,26.0,19,0.00,,,-99.99,,2013-01-18 23:22:00,
2013-01-18 15:32:00,63.0,20.0,30.01,East,80,21.0,26.0,19,0.00,,,-99.99,,2013-01-18 23:32:00,
2013-01-18 15:42:00,63.0,20.0,30.01,East,80,21.0,26.0,19,0.00,,,-99.99,,2013-01-18 23:42:00,
2013-01-18 15:52:00,63.0,20.0,30.01,East,80,21.0,26.0,19,0.00,,,-99.99,,2013-01-18 23:52:00,
2013-01-18 16:22:00,61.0,20.0,30.01,East,80,13.0,24.0,20,0.00,,,-99.99,,2013-01-19 00:22:00,
2013-01-18 16:32:00,61.0,20.0,30.01,East,80,13.0,24.0,20,0.00,,,-99.99,,2013-01-19 00:32:00,
2013-01-18 16:42:00,61.0,20.0,30.01,East,80,13.0,24.0,20,0.00,,,-99.99,,2013-01-19 00:42:00,
2013-01-18 16:52:00,61.0,20.0,30.01,East,80,13.0,24.0,20,0.00,,,-99.99,,2013-01-19 00:52:00,
2013-01-18 17:22:00,57.0,19.0,30.02,East,80,3.0,20.0,22,0.00,,,-99.99,,2013-01-19 01:22:00,
2013-01-18 17:32:00,57.0,19.0,30.02,East,80,3.0,20.0,22,0.00,,,-99.99,,2013-01-19 01:32:00,
2013-01-18 17:42:00,57.0,19.0,30.02,East,80,3.0,20.0,22,0.00,,,-99.99,,2013-01-19 01:42:00,
2013-01-18 17:52:00,57.0,19.0,30.02,East,80,3.0,20.0,22,0.00,,,-99.99,,2013-01-19 01:52:00,
2013-01-18 18:22:00,55.0,18.0,30.03,East,80,15.0,21.0,23,0.00,,,-99.99,,2013-01-19 02:22:00,
2013-01-18 18:33:00,55.0,18.0,30.03,East,80,15.0,21.0,23,0.00,,,-99.99,,2013-01-19 02:33:00,
2013-01-18 18:42:00,55.0,18.0,30.03,East,80,15.0,21.0,23,0.00,,,-99.99,,2013-01-19 02:42:00,
2013-01-18 18:52:00,55.0,18.0,30.03,East,80,15.0,21.0,23,0.00,,,-99.99,,2013-01-19 02:52:00,
2013-01-18 19:22:00,56.0,18.0,30.03,East,80,9.0,20.0,22,0.00,,,-99.99,,2013-01-19 03:22:00,
2013-01-18 19:32:00,56.0,18.0,30.03,East,80,9.0,20.0,22,0.00,,,-99.99,,2013-01-19 03:32:00,
2013-01-18 19:43:00,56.0,18.0,30.03,East,80,9.0,20.0,22,0.00,,,-99.99,,2013-01-19 03:43:00,
2013-01-18 19:52:00,56.0,18.0,30.03,East,80,9.0,20.0,22,0.00,,,-99.99,,2013-01-19 03:52:00,
2013-01-18 20:22:00,55.0,17.0,30.03,East,80,9.0,23.0,22,0.00,,,-99.99,,2013-01-19 04:22:00,
2013-01-18 20:32:00,55.0,17.0,30.03,East,80,9.0,23.0,22,0.00,,,-99.99,,2013-01-19 04:32:00,
2013-01-18 20:42:00,55.0,17.0,30.03,East,80,9.0,23.0,22,0.00,,,-99.99,,2013-01-19 04:42:00,
2013-01-18 20:52:00,55.0,17.0,30.03,East,80,9.0,23.0,22,0.00,,,-99.99,,2013-01-19 04:52:00,
2013-01-18 21:22:00,55.0,17.0,30.04,East,80,16.0,23.0,22,0.00,,,-99.99,,2013-01-19 05:22:00,
2013-01-18 21:32:00,55.0,17.0,30.04,East,80,16.0,23.0,22,0.00,,,-99.99,,2013-01-19 05:32:00,
2013-01-18 21:42:00,55.0,17.0,30.04,East,80,16.0,23.0,22,0.00,,,-99.99,,2013-01-19 05:42:00,
2013-01-18 21:52:00,55.0,17.0,30.04,East,80,16.0,23.0,22,0.00,,,-99.99,,2013-01-19 05:52:00,
2013-01-18 22:22:00,56.0,18.0,30.04,East,80,16.0,24.0,22,0.00,,,-99.99,,2013-01-19 06:22:00,
2013-01-18 22:32:00,56.0,18.0,30.04,East,80,16.0,24.0,22,0.00,,,-99.99,,2013-01-19 06:32:00,
2013-01-18 22:43:00,56.0,18.0,30.04,East,80,16.0,24.0,22,0.00,,,-99.99,,2013-01-19 06:43:00,
2013-01-18 22:52:00,56.0,18.0,30.04,East,80,16.0,24.0,22,0.00,,,-99.99,,2013-01-19 06:52:00,
2013-01-18 23:22:00,55.0,17.0,30.03,East,80,11.0,22.0,22,0.00,,,-99.99,,2013-01-19 07:22:00,
2013-01-18 23:32:00,55.0,17.0,30.03,East,80,11.0,22.0,22,0.00,,,-99.99,,2013-01-19 07:32:00,
2013-01-18 23:42:00,55.0,17.0,30.03,East,80,11.0,22.0,22,0.00,,,-99.99,,2013-01-19 07:42:00,
2013-01-18 23:52:00,55.0,17.0,30.03,East,80,11.0,22.0,22,0.00,,,-99.99,,2013-01-19 07:52:00,